ES'HAIL 1

Last updated on Sun Apr 12 2026 00:02:53 GMT+0000 (Coordinated Universal Time)

1 39233U 13044A 26101.24052255 .00000145 00000+0 00000+0 0 9995 2 39233 0.0533 14.5342 0002554 10.9112 286.0845 1.00271013 45953
UTC large
Height (km)
Speed (km/s)
/
Latitude / Longitude
Inclination (degrees)
Orbital Period (minutes)
Azimuth
Elevation
Range (km)
Doppler Factor

Next 0 passes for location: London (51.5072 / 0.1276)

Sorry there are no passes over London.
ES'HAIL 1